Location: Newark
(12.5331°N, 56.4669°W)
Time: 02:15:15
(UTC+00:00)

LightSail 2 - Pass Details

Date: 27 January 2020
Orbit: 698 x 724 km, 24.0° (Epoch: 26 February)

Event Time Altitude Azimuth Distance (km) Brightness Sun altitude
Rises 22:02:20 0° 300° (WNW) 3,064 9.1 -4.8°
Reaches altitude 10° 22:04:58 10° 310° (NW) 2,151 8.1 -5.4°
Maximum altitude 22:09:30 32° 13° (NNE) 1,184 6.1 -6.5°
Drops below altitude 10° 22:14:05 10° 77° (ENE) 2,167 7.0 -7.5°
Enters shadow 22:14:21 - 78° (ENE) 2,256 7.0 -7.6°
